Regional Weather Roundup
Issued by NWS

Home | Current Version | Previous Version | Text Only | Print | Product List | Glossary On
Versions: 1 2 3 4 5 6 7 8 9 10 11 12 13 14 15 16 17 18 19 20 21 22 23 24 25 26 27 28 29 30 31 32 33 34 35 36 37 38 39 40 41 42 43 44 45 46 47 48 49 50
000
ASUS46 KSEW 180810
RWRWA

WASHINGTON REGIONAL WEATHER ROUNDUP
NATIONAL WEATHER SERVICE SEATTLE WA
1200 AM PST THU DEC 18 2014

NOTE:"FAIR" INDICATES FEW OR NO CLOUDS BELOW 12,000 FEET WITH NO
SIGNIFICANT WEATHER AND/OR OBSTRUCTIONS TO VISIBILITY.

WAZ505-507>509-180900-
SEATTLE, TACOMA, EVERETT, AND VICINITY

CITY           SKY/WX    TMP DP  RH WIND       PRES   REMARKS
EVERETT        CLOUDY    44  42  93 S7        29.91S
BOEING FIELD   LGT RAIN  47  43  86 SE3       29.93S
RENTON         CLOUDY    46  43  89 SE3       29.93S
SEATAC AIRPORT FOG       45  43  93 S3        29.93S VSB 1
JBLM-MCCHORD   LGT RAIN  43  43 100 SW3       29.93S
PUYALLUP       NOT AVBL
JBLM-FT LEWIS  DRIZZLE   43  43 100 SE3       29.93R
TACOMA NARROWS LGT RAIN  45  43  93 S7        29.93S FOG
$$

WAZ001-503-506-510-514-515-180900-
NORTH INTERIOR

CITY           SKY/WX    TMP DP  RH WIND       PRES   REMARKS
BELLINGHAM     LGT RAIN  43  39  87 CALM      29.91S
FRIDAY HARBOR  CLOUDY    45  43  93 CALM      29.92R
EASTSOUND      CLOUDY    43  43 100 CALM      29.89S
PORT ANGELES   CLOUDY    44  42  93 CALM      29.90S
NAS WHIDBEY    LGT RAIN  47  42  83 E7        29.92R
BURLINGTON     CLOUDY    45  45 100 E3        29.92F
$$

WAZ020-022-039-040-504-511-512-180900-
SOUTHWEST INTERIOR

CITY           SKY/WX    TMP DP  RH WIND       PRES   REMARKS
SHELTON        CLOUDY    44  43  96 CALM      29.91R FOG
OLYMPIA        CLOUDY    45  43  93 S7        29.94R
CHEHALIS       CLOUDY    46  45  93 S7        29.94S
KELSO          CLOUDY    45  43  93 SE8       30.00S
VANCOUVER      CLOUDY    45  40  82 E8        29.98F
SCAPPOOSE, OR  CLOUDY    45  43  93 SE3       29.97S
PORTLAND, OR   CLOUDY    44  41  89 SE8       29.99S
$$

WAZ021-516-517-180900-
WASHINGTON COAST

CITY           SKY/WX    TMP DP  RH WIND       PRES   REMARKS
FORKS          CLOUDY    45  44  97 CALM      29.89S
HOQUIAM        CLOUDY    46  45  96 NE5       29.92S
ASTORIA, OR    LGT RAIN  45  43  93 E3        29.93R
$$

WAZ019-023-024-040-518-519-180900-
CASCADE MOUNTAINS AND COLUMBIA GORGE

CITY           SKY/WX    TMP DP  RH WIND       PRES   REMARKS
STAMPEDE PASS  NOT AVBL
TROUTDALE, OR  CLOUDY    43  38  82 E14       29.99S
THE DALLES, OR CLOUDY    39  37  92 CALM      30.03F
$$

WAZ026-027-041>044-520-521-180900-
EAST SLOPES

CITY           SKY/WX    TMP DP  RH WIND       PRES   REMARKS
OMAK           FOG       33  31  92 CALM      29.98S VSB 1
WENATCHEE      CLOUDY    36  34  92 CALM      29.96F
ELLENSBURG     CLOUDY    35  32  88 CALM      29.95F FOG
YAKIMA         CLOUDY    40  36  86 CALM      29.98F
$$

WAZ028-034-035-180900-
COLUMBIA BASIN

CITY           SKY/WX    TMP DP  RH WIND       PRES   REMARKS
EPHRATA        CLOUDY    37  35  92 CALM      29.96S
MOSES LAKE     CLOUDY    36  35  96 SW3       29.98S
PASCO          CLOUDY    39  39 100 CALM      30.03S
HERMISTON, OR  CLOUDY    36  35  96 SE3       30.01S FOG
$$

WAZ036>038-180900-
NORTHEAST WASHINGTON

CITY           SKY/WX    TMP DP  RH WIND       PRES   REMARKS
SPOKANE GEIGER CLOUDY    35  34  96 E6        29.94F
SPOKANE FELTS  CLOUDY    37  33  85 NE3       29.97F
FAIRCHILD AFB  CLOUDY    32  32 100 E6        29.93F
COEURDALENE,ID CLOUDY    34  32  93 NE6       29.96S
DEER PARK      CLOUDY    34  33  96 NE5       29.96F
$$

WAZ029>033-180900-
SOUTHEAST WASHINGTON

CITY           SKY/WX    TMP DP  RH WIND       PRES   REMARKS
PULLMAN        CLOUDY    38  34  85 CALM      29.97S
LEWISTON, ID   LGT RAIN  39  37  92 CALM      29.98S
WALLA WALLA    LGT RAIN  38  36  92 SE3       29.99F FOG
PENDLETON, OR  CLOUDY    34  34 100 E3        29.97F FOG
$$


USA.gov is the U.S. government's official web portal to all federal, state and local government web resources and services.